Location: Blanot
(47.1713°N, 4.2340°E)
Time: 08:39:04
(UTC+00:00)

CZ-4C R/B - Pass Details

Date: 14 July 2020
Orbit: 632 x 1370 km, 63.4° (Epoch: 14 August)

Event Time Altitude Azimuth Distance (km) Brightness Sun altitude
Rises 00:15:25 0° 313° (NW) 3,936 6.2 -20.9°
Reaches altitude 10° 00:18:23 10° 302° (WNW) 3,083 5.4 -20.9°
Maximum altitude 00:24:29 28° 248° (WSW) 2,201 4.0 -20.7°
Enters shadow 00:26:33 25° 224° (SW) 2,370 4.0 -20.7°
